Temperature
5 5 5 5 5 4 4 3 3 4 4 6 7 7 8 8 6 5 4 3 3 3 4 4 5 5 5 5 6 6 6 6 7 6 6 6 6 6 6 6 6 6 6 5
5 5 5 4 5 5 4 5 5 5 6 7 8 8 8 7 5 4 3 2 2 2 3 3 4 4 4 4 4 4 5 5 5 5 5 5 5 5 5 4 4 4 3 3
4 5 5 4 5 5 5 5 5 6 7 7 7 7 7 6 4 3 2 1 1 2 2 2 3 3 3 3 3 3 3 3 3 3 3 3 3 2 2 2 1 1 1 1
5 5 5 6 8 6 6 6 6 7 7 7 7 8 7 6 4 3 2 1 1 1 1 1 1 2 2 2 2 2 2 2 1 1 1 1 1 0 0 0 -0 -0 -0 -0
5 5 5 7 8 7 6 7 8 7 7 8 8 6 6 5 4 2 1 1 1 0 0 0 1 1 1 1 1 1 1 1 0 0 0 0 -0 -0 -0 -0 -0 -0 -0 -0
5 5 5 8 9 9 8 8 9 8 7 7 6 6 5 5 4 2 1 1 0 -0 -0 0 0 -0 0 0 0 0 -0 -0 -0 -0 -0 -0 -0 -0 -0 -0 -0 -0 -0 -1
6 5 5 7 8 8 8 9 9 9 8 7 6 6 6 5 4 3 2 1 0 0 0 -0 -0 -0 0 0 -0 -0 -0 -0 -0 -0 -0 -0 -0 -0 -0 -0 -0 -1 -1 -1
6 5 5 8 7 8 9 9 9 8 8 7 7 6 5 5 4 3 2 2 1 1 1 0 0 0 0 0 -0 -0 -0 -0 -0 -0 -0 -1 -1 -1 -1 -1 -1 -1 -2 -2
6 6 8 8 9 9 9 9 8 8 8 7 6 6 5 4 4 3 3 2 2 1 1 1 1 1 1 0 0 0 0 -0 -0 -0 -0 -1 -1 -1 -1 -2 -2 -2 -3 -3
5 5 7 8 9 9 9 9 8 8 7 7 6 6 5 4 4 3 3 3 2 2 2 1 1 1 1 1 0 0 0 -0 -0 -0 -1 -1 -1 -2 -2 -2 -3 -3 -4 -4
5 6 7 9 9 9 9 9 8 8 7 7 6 6 5 5 4 3 3 3 3 2 2 2 1 1 1 0 0 0 0 -0 -1 -1 -1 -2 -2 -2 -3 -3 -4 -4 -5 -5
5 6 6 7 8 8 8 8 8 7 7 7 6 5 5 4 4 4 3 3 3 2 2 2 1 1 1 0 -0 -0 -0 -1 -1 -1 -2 -2 -3 -3 -3 -4 -5 -5 -6 -6
6 6 7 7 8 8 7 8 7 7 7 6 6 5 4 4 4 3 3 3 3 2 2 2 1 1 1 -0 -1 -1 -1 -1 -1 -2 -2 -3 -3 -3 -4 -4 -5 -6 -6 -7
5 5 6 7 7 7 7 7 7 7 6 5 5 4 4 4 3 3 3 3 3 2 2 2 1 1 0 -0 -1 -1 -1 -1 -2 -2 -2 -3 -3 -4 -4 -5 -5 -6 -6 -7
4 4 4 5 6 6 6 6 6 6 5 5 4 4 3 3 3 3 3 3 2 2 2 1 1 1 0 -0 -1 -1 -1 -2 -2 -2 -3 -3 -4 -4 -5 -5 -6 -7 -7 -8
4 4 4 4 4 4 5 5 5 5 5 4 4 3 3 3 2 2 3 3 3 2 2 1 1 0 0 -0 -1 -1 -2 -2 -2 -3 -3 -4 -4 -5 -5 -6 -7 -7 -8 -8
1 2 2 2 3 3 4 4 4 4 4 4 3 3 2 2 2 2 2 2 2 2 1 1 0 0 -0 -1 -1 -1 -2 -2 -3 -3 -4 -4 -5 -6 -6 -7 -8 -8 -9 -9
0 0 1 1 1 2 3 4 4 4 4 4 3 2 2 2 2 2 2 2 2 1 1 0 -0 -0 -1 -1 -1 -2 -2 -3 -3 -4 -4 -5 -6 -6 -7 -7 -8 -9 -9 -9
0 1 1 1 1 2 3 3 4 4 4 3 3 3 2 2 2 2 2 2 2 1 1 0 -0 -1 -1 -1 -2 -2 -3 -3 -4 -4 -5 -5 -6 -7 -7 -8 -9 -9 -9 -9
1 1 1 1 2 2 3 3 3 4 4 3 3 2 2 2 2 2 2 2 2 1 1 0 -0 -1 -1 -2 -2 -3 -3 -4 -4 -5 -5 -6 -7 -7 -8 -8 -9 -9 -9 -10
1 1 1 1 2 2 2 3 3 3 3 2 2 2 2 2 1 1 2 2 2 1 -0 -1 -1 -1 -2 -2 -3 -3 -4 -4 -5 -5 -6 -6 -7 -8 -8 -9 -9 -9 -10 -10
1 1 1 1 1 2 2 2 2 2 1 1 1 1 1 1 1 1 2 2 1 0 -0 -1 -1 -2 -2 -2 -3 -3 -4 -4 -5 -5 -6 -7 -7 -8 -8 -9 -9 -10 -10 -10
0 0 1 1 1 1 1 1 1 1 0 0 0 1 1 1 1 1 2 1 0 -0 -0 -1 -2 -2 -2 -3 -3 -4 -4 -5 -5 -6 -6 -7 -8 -8 -9 -9 -9 -10 -10 -10
0 0 -0 -0 -0 0 0 -0 -0 -0 -0 -0 -0 -0 0 0 0 1 1 1 0 -0 -1 -1 -2 -2 -3 -3 -4 -4 -4 -5 -5 -6 -7 -7 -8 -8 -9 -9 -9 -9 -9 -9
-1 -1 -1 -1 -1 -1 -1 -1 -1 -1 -1 -1 -1 -1 -1 -0 0 0 0 -0 -0 -1 -1 -2 -2 -3 -3 -3 -4 -4 -5 -5 -6 -6 -7 -7 -8 -8 -8 -9 -9 -9 -9 -9
-1 -1 -2 -2 -2 -2 -2 -2 -2 -2 -2 -2 -1 -1 -1 -1 -1 -1 -1 -1 -1 -1 -2 -2 -3 -3 -3 -4 -4 -4 -5 -5 -6 -6 -7 -7 -8 -8 -8 -8 -9 -9 -9 -9
-2 -2 -2 -2 -2 -2 -2 -2 -2 -3 -3 -2 -2 -2 -2 -2 -2 -1 -2 -2 -2 -2 -2 -3 -3 -3 -4 -4 -4 -5 -5 -5 -6 -6 -7 -7 -7 -8 -8 -8 -8 -8 -8 -8
Wind_Speed
3 2 4 5 6 9 9 9 9 8 8 14 14 13 12 8 6 7 8 9 10 11 10 10 9 8 8 9 9 8 9 10 10 10 10 11 12 12 13 13 14 14 15 15
2 1 5 6 8 11 11 9 11 12 14 16 11 8 7 6 6 7 8 9 9 10 10 10 9 8 8 8 8 8 10 10 10 11 12 13 13 14 14 14 14 15 15 15
2 3 1 7 10 14 8 8 9 13 13 11 10 10 7 5 4 5 6 7 8 8 8 8 7 7 7 7 8 9 10 10 10 11 12 13 13 14 14 13 14 14 14 14
1 2 5 6 3 8 9 9 12 11 11 10 9 7 3 2 2 4 4 5 6 6 6 6 6 6 7 8 9 9 10 10 10 10 11 11 12 13 12 11 11 12 12 12
1 3 7 7 3 6 6 6 8 12 14 11 5 4 3 2 1 1 2 3 3 4 4 5 6 6 7 8 9 9 9 9 9 9 10 11 11 11 10 10 11 10 10 10
3 3 5 4 1 3 4 3 4 5 8 6 1 3 3 3 3 2 3 3 3 4 5 6 6 6 8 8 8 9 8 8 8 9 10 10 10 9 9 9 10 10 10 8
5 5 7 7 3 4 2 3 3 3 5 4 5 5 2 5 3 3 3 3 3 4 5 5 5 6 8 8 8 7 8 9 9 9 10 10 9 8 9 9 10 9 9 8
6 6 8 3 5 5 5 3 4 4 4 4 4 3 5 5 4 4 3 3 3 4 5 5 5 6 8 7 6 7 8 9 9 9 8 8 9 8 8 8 9 8 7 7
8 8 4 2 5 5 3 5 5 4 3 3 4 5 5 5 5 4 4 3 3 5 5 5 5 6 7 5 6 7 9 9 8 9 8 7 7 7 6 6 6 5 5 5
5 8 7 8 7 6 5 6 5 4 4 5 5 6 7 6 6 5 4 4 4 5 6 5 5 6 6 5 6 8 9 8 7 8 8 7 6 6 6 5 5 4 4 3
6 6 6 5 3 3 3 4 4 3 4 5 7 7 7 7 7 6 5 4 5 5 6 5 5 6 5 6 7 8 8 7 7 7 6 6 6 5 5 3 4 4 2 2
6 5 3 6 5 4 4 5 5 4 3 4 7 8 8 7 7 6 6 6 6 6 6 5 6 6 5 5 6 8 7 6 5 5 5 5 5 5 8 7 9 7 4 2
3 3 5 7 5 3 4 5 4 5 5 5 5 7 8 7 7 7 7 7 7 7 6 6 6 6 5 5 6 7 7 6 4 4 4 4 3 4 3 5 8 9 8 7
2 4 4 4 5 6 5 3 1 2 3 4 6 6 8 7 8 8 8 7 7 7 7 6 6 5 4 6 7 7 6 6 5 4 4 4 3 3 2 2 2 3 6 8
4 5 6 8 8 5 2 1 2 2 3 4 5 7 9 9 9 8 8 8 8 8 7 7 7 5 4 6 7 7 6 4 4 4 4 4 3 3 3 3 2 2 3 4
9 8 7 6 7 5 3 4 5 5 5 5 6 7 8 8 8 8 8 9 9 9 8 7 7 6 6 7 7 6 5 7 6 4 4 3 3 2 2 2 2 2 3 3
6 7 6 7 8 8 7 7 7 7 6 7 8 8 8 9 8 8 8 7 6 7 7 7 7 6 6 6 7 5 4 5 6 4 3 2 2 1 0 1 2 3 3 5
6 8 9 10 11 11 10 8 7 7 7 8 9 9 10 11 11 10 8 8 7 6 5 6 7 7 6 6 6 5 5 4 3 3 2 1 1 0 1 1 3 4 4 5
6 7 8 9 9 9 8 7 7 7 7 9 10 11 10 9 9 10 10 10 10 8 7 7 11 8 7 7 7 5 5 4 3 2 1 1 1 0 1 2 3 4 4 5
6 7 8 8 8 6 6 4 3 5 7 9 9 9 9 9 9 10 10 9 7 5 8 9 9 7 7 7 7 5 5 5 4 3 2 1 2 2 3 3 4 4 5 5
8 8 9 9 8 7 5 2 2 4 6 8 9 10 9 9 10 10 9 7 5 7 10 12 8 6 6 7 7 5 5 4 4 3 3 2 3 3 3 4 4 5 5 5
7 8 9 9 8 7 6 3 1 3 5 6 7 7 9 9 9 8 7 5 7 12 9 7 6 9 10 9 5 5 5 4 4 3 3 3 3 4 4 4 5 5 6 6
6 7 8 8 7 6 5 4 2 1 3 5 7 8 9 8 8 8 7 5 7 13 9 7 10 13 13 7 5 5 5 5 4 4 4 4 4 4 5 5 5 5 6 6
6 7 7 7 6 5 6 5 4 1 1 3 5 6 7 6 5 4 3 10 14 14 8 11 15 15 12 6 5 5 5 4 4 4 4 4 4 4 5 5 6 6 6 8
5 6 6 7 6 5 5 4 3 2 0 1 3 5 5 5 5 6 6 8 14 14 8 12 16 15 8 6 5 5 5 5 5 4 4 4 5 5 5 5 6 6 7 7
4 5 5 5 4 4 4 3 3 2 1 1 1 2 3 4 5 6 6 8 10 12 9 7 8 10 7 6 5 5 5 4 4 4 4 4 5 5 5 6 7 7 7 7
4 4 4 4 4 4 4 4 3 3 2 2 2 3 4 4 5 6 6 7 7 7 7 6 6 7 6 6 5 5 4 4 4 4 4 4 5 5 6 7 6 6 6 7
Wind_Direction
219 210 169 196 192 186 194 195 205 237 246 274 286 295 300 304 321 332 336 342 345 344 342 343 347 355 5 9 12 17 36 45 50 55 64 72 78 83 88 92 96 100 101 101
323 260 212 233 222 205 214 220 237 260 277 272 277 285 289 300 322 328 335 342 345 346 347 349 353 3 15 22 25 36 50 53 56 63 68 72 77 82 86 90 94 97 100 101
285 296 300 260 225 202 201 207 206 236 247 270 288 294 295 301 317 321 330 341 347 347 349 352 360 16 27 31 39 49 56 58 62 70 75 77 81 84 86 89 92 93 96 99
266 3 251 246 215 185 202 228 216 235 256 269 273 290 277 225 292 316 333 344 348 352 358 3 14 30 41 47 53 58 60 61 64 72 78 81 84 85 85 87 89 90 91 93
195 280 283 290 244 170 185 258 227 232 256 270 287 314 275 175 135 17 359 1 0 8 18 24 29 39 52 54 57 62 62 63 66 74 80 82 84 84 85 88 86 85 85 86
189 247 256 259 320 154 137 275 260 218 255 275 284 298 281 137 118 90 58 39 33 32 41 42 38 51 63 61 61 63 64 66 67 73 79 80 80 81 82 83 84 83 78 74
214 241 266 254 231 133 179 243 283 254 261 257 218 222 153 130 120 111 88 64 59 59 55 46 49 67 71 66 62 62 69 70 69 71 76 79 78 77 83 86 85 81 78 65
191 216 253 240 146 182 231 274 278 270 259 246 216 148 139 141 133 128 112 88 80 76 66 53 62 79 79 70 67 72 75 75 71 69 73 77 80 75 76 85 86 83 82 70
201 219 243 216 216 242 232 262 268 257 251 218 191 183 167 155 147 142 138 120 103 98 85 67 64 83 89 81 83 84 80 76 73 70 66 69 78 80 74 73 82 79 77 72
244 259 260 264 264 265 245 241 256 252 237 196 195 183 168 158 155 150 144 135 123 113 101 86 74 78 86 91 90 91 86 79 75 76 71 62 62 70 78 80 84 84 85 79
245 271 297 290 263 275 273 254 257 249 214 201 188 180 172 165 161 156 147 138 129 125 118 111 100 90 89 97 102 97 89 83 77 74 78 72 67 75 89 96 121 115 116 117
225 237 236 273 292 296 275 267 252 230 214 194 184 177 165 162 159 154 150 142 134 130 127 122 114 104 98 103 110 109 100 89 85 84 79 78 75 63 73 81 79 80 88 100
261 292 252 266 287 292 280 272 247 218 208 195 179 168 160 156 155 151 150 150 149 146 140 133 124 115 112 114 111 109 112 108 97 93 94 93 91 91 72 53 59 52 40 32
15 352 306 308 306 305 288 282 209 185 188 178 164 155 152 148 151 156 160 157 147 141 140 138 130 126 128 123 114 110 109 113 112 107 106 102 97 92 88 71 29 5 8 13
12 341 286 290 297 298 291 216 198 199 175 164 161 159 160 160 164 162 153 146 140 140 145 144 140 139 137 128 122 119 116 114 112 109 102 98 94 87 76 66 46 7 346 349
315 305 294 295 300 300 287 255 241 231 200 186 178 174 168 160 153 149 151 154 156 164 164 158 155 153 143 131 124 119 123 131 125 114 102 94 87 82 65 39 10 348 331 318
308 314 321 315 310 300 278 253 241 230 205 194 186 168 153 147 148 154 158 160 156 155 158 158 153 145 139 135 131 129 124 128 124 109 103 105 102 93 46 331 312 306 300 303
276 282 285 286 287 287 281 261 239 221 205 191 168 161 165 169 173 168 158 143 133 135 150 149 144 139 136 136 133 130 126 121 122 125 127 146 155 163 276 291 294 297 297 305
307 303 302 297 289 280 276 265 243 215 188 171 170 176 179 176 168 160 155 157 163 169 174 161 158 148 143 151 140 129 131 133 131 133 140 191 154 253 280 283 284 286 290 294
333 330 327 323 320 308 291 279 230 185 172 168 168 170 172 170 163 163 168 178 185 173 158 160 153 148 148 155 145 134 142 149 156 164 176 202 233 261 272 277 281 284 285 288
346 344 344 343 340 340 337 327 182 170 166 169 174 178 175 168 166 166 173 186 179 154 158 163 154 151 151 158 151 142 151 160 170 184 203 224 246 261 268 275 284 288 289 290
348 348 348 348 349 350 352 5 71 151 160 169 170 163 162 168 173 178 188 181 164 168 162 158 154 165 168 159 143 153 162 172 181 192 210 227 244 260 269 275 277 282 283 283
349 349 350 349 347 344 356 12 29 142 175 180 177 177 179 179 179 181 191 174 161 172 165 164 172 175 172 157 152 163 174 184 195 206 218 229 240 250 261 270 273 276 279 283
352 352 347 343 347 2 3 354 349 337 190 185 184 180 176 175 184 188 152 169 176 174 169 176 178 179 171 150 160 171 184 195 204 214 226 235 243 251 258 265 273 276 277 280
344 342 347 353 359 354 342 340 349 2 48 179 185 183 182 181 181 177 164 171 178 172 166 181 182 180 161 155 170 181 190 202 209 216 225 238 248 256 261 265 269 275 279 279
343 338 333 329 329 330 334 336 330 316 289 248 219 195 178 162 155 160 166 172 176 174 169 170 172 169 155 165 175 186 196 217 240 239 234 245 254 260 266 270 274 274 277 278
335 334 331 335 339 342 336 326 313 300 275 245 234 203 180 166 162 166 168 169 169 165 162 159 152 149 156 166 176 187 198 211 224 236 243 249 254 260 266 270 274 276 277 279
Height
1487 1486 1488 1489 1490 1493 1495 1497 1500 1491 1487 1473 1468 1466 1463 1460 1458 1455 1453 1450 1446 1443 1440 1437 1434 1431 1428 1425 1423 1421 1418 1416 1414 1413 1413 1413 1413 1414 1416 1418 1420 1423 1425 1429
1487 1484 1486 1487 1485 1487 1488 1488 1487 1484 1479 1465 1463 1462 1460 1458 1455 1453 1451 1448 1445 1443 1440 1437 1434 1431 1429 1426 1424 1422 1419 1417 1416 1414 1414 1413 1413 1414 1416 1418 1421 1423 1426 1430
1489 1485 1483 1484 1475 1477 1479 1477 1478 1477 1470 1462 1461 1459 1457 1455 1453 1452 1450 1447 1445 1442 1439 1437 1435 1432 1430 1428 1425 1423 1421 1420 1419 1417 1416 1416 1416 1417 1419 1421 1424 1427 1430 1433
1486 1484 1487 1472 1463 1465 1468 1467 1467 1465 1461 1459 1458 1456 1454 1452 1451 1450 1448 1446 1444 1442 1440 1438 1436 1434 1431 1429 1427 1426 1424 1423 1422 1421 1420 1420 1421 1422 1424 1426 1428 1431 1434 1438
1483 1483 1479 1467 1460 1462 1465 1463 1459 1460 1458 1456 1455 1454 1451 1450 1449 1448 1447 1446 1444 1442 1440 1439 1437 1435 1433 1431 1430 1429 1428 1427 1426 1426 1426 1426 1427 1428 1430 1432 1434 1436 1439 1442
1481 1481 1478 1464 1458 1457 1461 1461 1455 1455 1455 1454 1454 1455 1452 1450 1448 1447 1446 1445 1444 1442 1441 1439 1438 1437 1435 1434 1433 1432 1431 1431 1431 1432 1432 1432 1433 1434 1436 1438 1440 1441 1443 1444
1477 1477 1472 1459 1456 1458 1463 1459 1454 1452 1452 1451 1451 1451 1450 1448 1447 1447 1446 1445 1444 1443 1442 1441 1440 1439 1438 1437 1436 1436 1436 1436 1437 1437 1438 1439 1440 1441 1442 1443 1444 1445 1445 1446
1472 1474 1471 1454 1455 1457 1455 1452 1451 1450 1449 1448 1447 1447 1447 1447 1446 1446 1446 1445 1445 1444 1443 1442 1442 1442 1441 1440 1441 1441 1442 1442 1442 1443 1444 1444 1445 1445 1446 1446 1447 1447 1448 1448
1464 1461 1454 1452 1452 1452 1451 1450 1448 1447 1446 1445 1444 1444 1445 1445 1446 1446 1446 1446 1446 1446 1445 1445 1445 1445 1445 1445 1445 1446 1446 1447 1447 1448 1448 1448 1449 1449 1449 1449 1449 1449 1449 1449
1458 1453 1450 1449 1449 1448 1447 1446 1445 1444 1443 1442 1442 1442 1443 1444 1445 1446 1446 1447 1447 1447 1447 1447 1447 1448 1448 1449 1449 1450 1450 1451 1451 1451 1451 1451 1451 1451 1451 1451 1450 1450 1449 1449
1454 1450 1447 1445 1446 1445 1445 1444 1443 1441 1440 1440 1439 1440 1441 1442 1444 1445 1446 1447 1448 1448 1449 1449 1450 1450 1451 1452 1453 1454 1454 1454 1454 1454 1454 1454 1453 1453 1452 1451 1451 1450 1449 1448
1450 1446 1446 1444 1444 1443 1442 1441 1439 1438 1437 1437 1437 1438 1439 1441 1442 1444 1445 1447 1448 1449 1450 1451 1452 1452 1453 1454 1455 1456 1456 1456 1456 1456 1455 1455 1454 1453 1452 1451 1450 1449 1448 1447
1444 1443 1443 1441 1441 1440 1438 1437 1436 1435 1434 1434 1434 1435 1437 1439 1440 1442 1444 1446 1448 1449 1451 1452 1453 1454 1455 1456 1457 1457 1458 1457 1457 1457 1456 1455 1454 1453 1452 1451 1450 1448 1447 1445
1441 1440 1439 1438 1437 1436 1435 1434 1433 1432 1432 1431 1432 1433 1435 1436 1439 1441 1443 1445 1447 1449 1451 1452 1454 1455 1456 1457 1457 1458 1458 1458 1458 1457 1456 1455 1454 1453 1452 1450 1449 1447 1446 1444
1438 1437 1437 1435 1433 1432 1431 1430 1429 1429 1429 1429 1429 1430 1432 1434 1436 1439 1442 1444 1446 1448 1450 1452 1454 1455 1456 1457 1458 1458 1458 1458 1458 1457 1456 1455 1454 1452 1451 1449 1448 1446 1444 1442
1434 1433 1432 1431 1429 1428 1427 1427 1426 1426 1426 1426 1427 1428 1430 1432 1434 1437 1440 1442 1445 1447 1450 1452 1453 1455 1456 1457 1457 1458 1458 1458 1457 1456 1455 1454 1453 1451 1450 1448 1446 1444 1442 1440
1430 1428 1427 1426 1425 1424 1423 1423 1422 1422 1422 1423 1424 1425 1427 1429 1431 1434 1437 1440 1444 1447 1449 1451 1453 1454 1455 1456 1457 1457 1457 1457 1456 1455 1454 1453 1451 1450 1448 1446 1444 1442 1440 1438
1427 1426 1424 1422 1421 1419 1418 1418 1418 1418 1418 1419 1421 1422 1423 1425 1428 1431 1434 1438 1441 1444 1447 1449 1451 1453 1454 1455 1455 1456 1456 1455 1455 1454 1452 1451 1449 1448 1446 1443 1441 1439 1437 1435
1423 1422 1420 1418 1417 1415 1414 1413 1414 1414 1415 1415 1417 1418 1420 1423 1425 1428 1432 1435 1438 1441 1445 1447 1449 1451 1452 1453 1454 1454 1454 1453 1453 1451 1450 1449 1447 1445 1443 1441 1439 1436 1434 1432
1421 1419 1417 1415 1413 1412 1410 1410 1410 1410 1411 1412 1413 1415 1417 1419 1422 1425 1429 1432 1436 1440 1443 1445 1447 1449 1450 1451 1452 1452 1452 1451 1450 1449 1448 1446 1444 1442 1440 1438 1436 1434 1431 1429
1419 1417 1415 1413 1411 1409 1408 1407 1407 1407 1408 1409 1410 1412 1414 1416 1419 1422 1425 1429 1433 1437 1440 1443 1445 1447 1448 1449 1449 1449 1449 1449 1448 1446 1445 1443 1441 1439 1437 1435 1433 1430 1428 1426
1417 1415 1413 1411 1410 1408 1407 1406 1405 1405 1406 1406 1407 1409 1411 1414 1416 1420 1423 1427 1431 1434 1437 1440 1442 1444 1445 1446 1447 1447 1446 1446 1445 1444 1442 1440 1438 1436 1434 1432 1429 1427 1425 1423
1416 1414 1412 1411 1409 1407 1406 1405 1405 1404 1404 1405 1405 1407 1409 1411 1414 1417 1420 1424 1428 1431 1434 1437 1439 1441 1442 1443 1444 1444 1444 1443 1442 1441 1439 1437 1435 1433 1431 1429 1426 1424 1422 1419
1416 1414 1412 1410 1409 1407 1406 1405 1404 1403 1403 1403 1404 1405 1407 1409 1412 1415 1418 1422 1425 1428 1431 1434 1436 1437 1439 1440 1441 1441 1440 1440 1439 1437 1436 1434 1432 1430 1428 1425 1423 1421 1419 1416
1415 1413 1411 1409 1407 1406 1405 1404 1403 1403 1402 1402 1403 1404 1405 1407 1410 1412 1415 1418 1421 1424 1427 1430 1432 1434 1435 1437 1437 1437 1437 1436 1435 1434 1432 1430 1429 1427 1424 1422 1420 1418 1416 1414
1413 1411 1410 1408 1407 1405 1404 1403 1402 1401 1401 1401 1401 1402 1403 1404 1406 1409 1411 1414 1417 1420 1424 1426 1428 1430 1432 1433 1434 1434 1434 1433 1432 1430 1429 1427 1425 1423 1421 1419 1417 1415 1413 1411
1411 1410 1408 1407 1405 1404 1402 1401 1400 1400 1399 1399 1399 1400 1400 1401 1403 1405 1407 1410 1413 1416 1420 1422 1425 1427 1429 1430 1430 1430 1430 1429 1428 1427 1425 1424 1422 1420 1418 1416 1414 1412 1410 1408